Weather History for KRUG - October, 2012

Change the Weather History Date:

Friday, October 26, 2012

  Actual Average Record
Temperature  
Mean Temperature 24 °F -  
Max Temperature 32 °F 53 °F - (-1)
Min Temperature 17 °F 31 °F - (-1)
Degree Days  
Heating Degree Days 40    
Moisture  
Dew Point 20 °F    
Average Humidity 71    
Maximum Humidity 86    
Minimum Humidity 51    
Precipitation  
Precipitation 0.14 in - - ()
Sea Level Pressure  
Sea Level Pressure 30.23 in    
Wind  
Wind Speed 17 mph (WNW)    
Max Wind Speed 25 mph    
Max Gust Speed 37 mph    
Visibility 10 miles    
Events Snow    
Averages and records for this station are not official NWS values.
T = Trace of Precipitation, MM = Missing Value Source: NWS Daily Summary

Daily Weather History Graph

Daily Weather History Graph

Search for Another Location

Airport or City:

Trip Planner

Search our weather history database for the weather conditions in past years. The results will help you decide how hot, cold, wet, or windy it might be!

Date:

Astronomy

Oct. 26, 2012 Rise Set
Actual Time 8:17 AM CDT 6:29 PM CDT
Civil Twilight 7:45 AM CDT 7:02 PM CDT
Nautical Twilight 7:08 AM CDT 7:38 PM CDT
Astronomical Twilight 6:32 AM CDT 8:14 PM CDT
Moon 4:55 PM CDT (10/26) 5:03 AM CDT (10/26)
Length of Visible Light 11h 16m
Length of Day
10h 12m
Waxing Gibbous, 91% of the Moon is Illuminated
Oct 26
Waxing Gibbous
Oct 29
Full
Nov 6
Last Quarter
Nov 13
New
Nov 20
First Quarter

Hourly Weather History & Observations

Time (CDT) Temp. Windchill Dew Point Humidity Pressure Visibility Wind Dir Wind Speed Gust Speed Precip Events Conditions
12:35 AM 32.0 °F 21.6 °F 23.0 °F 69% 30.16 in 10.0 mi WNW 15.0 mph - N/A   Overcast
12:55 AM 32.0 °F 20.8 °F 21.2 °F 64% 30.16 in 10.0 mi WNW 17.3 mph 25.3 mph N/A   Overcast
1:15 AM 32.0 °F 20.5 °F 21.2 °F 64% 30.17 in 10.0 mi WNW 18.4 mph - N/A   Overcast
1:35 AM 32.0 °F 19.2 °F 19.4 °F 60% 30.16 in 10.0 mi WNW 23.0 mph 29.9 mph N/A   Overcast
2:15 AM 32.0 °F 19.5 °F 21.2 °F 64% 30.17 in 10.0 mi WNW 21.9 mph 29.9 mph N/A   Overcast
2:35 AM 30.2 °F 18.1 °F 19.4 °F 64% 30.18 in 10.0 mi WNW 18.4 mph 31.1 mph N/A   Overcast
2:55 AM 30.2 °F 17.4 °F 23.0 °F 75% 30.18 in 10.0 mi WNW 20.7 mph - N/A   Overcast
3:35 AM 30.2 °F 16.2 °F 23.0 °F 75% 30.18 in 10.0 mi WNW 25.3 mph 31.1 mph N/A   Overcast
3:55 AM 30.2 °F 17.1 °F 19.4 °F 64% 30.19 in 10.0 mi WNW 21.9 mph 36.8 mph N/A   Overcast
4:15 AM 28.4 °F 15.1 °F 19.4 °F 69% 30.19 in 10.0 mi WNW 20.7 mph 28.8 mph N/A   Overcast
4:35 AM 28.4 °F 16.2 °F 19.4 °F 69% 30.20 in 10.0 mi WNW 17.3 mph 25.3 mph N/A   Overcast
4:55 AM 28.4 °F 15.1 °F 19.4 °F 69% 30.20 in 10.0 mi WNW 20.7 mph 26.5 mph N/A   Overcast
5:35 AM 26.6 °F 13.4 °F 21.2 °F 80% 30.21 in 10.0 mi WNW 18.4 mph - N/A   Partly Cloudy
5:55 AM 26.6 °F 13.8 °F 19.4 °F 74% 30.22 in 10.0 mi WNW 17.3 mph 23.0 mph N/A   Clear
6:15 AM 24.8 °F 12.9 °F 19.4 °F 80% 30.22 in 10.0 mi WNW 13.8 mph - N/A   Clear
6:35 AM 24.8 °F 12.4 °F 19.4 °F 80% 30.22 in 10.0 mi WNW 15.0 mph 21.9 mph N/A   Clear
6:55 AM 24.8 °F 11.9 °F 19.4 °F 80% 30.23 in 10.0 mi West 16.1 mph - N/A   Clear
7:15 AM 24.8 °F 11.9 °F 19.4 °F 80% 30.23 in 10.0 mi WNW 16.1 mph - N/A   Clear
7:35 AM 24.8 °F 11.5 °F 19.4 °F 80% 30.23 in 10.0 mi WNW 17.3 mph 26.5 mph N/A   Clear
7:55 AM 24.8 °F 11.1 °F 19.4 °F 80% 30.24 in 10.0 mi WNW 18.4 mph 24.2 mph N/A   Clear
8:15 AM 24.8 °F 11.5 °F 19.4 °F 80% 30.24 in 10.0 mi WNW 17.3 mph 23.0 mph N/A   Clear
8:35 AM 23.0 °F 9.2 °F 19.4 °F 86% 30.25 in 10.0 mi WNW 17.3 mph 25.3 mph N/A   Clear
8:55 AM 24.8 °F 11.9 °F 19.4 °F 80% 30.26 in 10.0 mi WNW 16.1 mph - N/A   Clear
9:15 AM 24.8 °F 10.7 °F 19.4 °F 80% 30.26 in 10.0 mi WNW 19.6 mph - N/A   Clear
9:35 AM 24.8 °F 11.1 °F 19.4 °F 80% 30.27 in 10.0 mi WNW 18.4 mph 24.2 mph N/A   Clear
9:55 AM 26.6 °F 13.4 °F 19.4 °F 74% 30.27 in 10.0 mi WNW 18.4 mph 25.3 mph N/A   Clear
10:15 AM 28.4 °F 15.4 °F 19.4 °F 69% 30.28 in 10.0 mi WNW 19.6 mph 25.3 mph N/A   Scattered Clouds
10:35 AM 28.4 °F 15.8 °F 19.4 °F 69% 30.28 in 10.0 mi WNW 18.4 mph - N/A   Mostly Cloudy
10:55 AM 28.4 °F 15.4 °F 19.4 °F 69% 30.28 in 10.0 mi WNW 19.6 mph 25.3 mph N/A   Overcast
11:15 AM 28.4 °F 16.6 °F 19.4 °F 69% 30.28 in 10.0 mi WNW 16.1 mph - N/A   Overcast
11:35 AM 28.4 °F 15.8 °F 19.4 °F 69% 30.28 in 10.0 mi WNW 18.4 mph 23.0 mph N/A   Overcast
11:55 AM 28.4 °F 16.2 °F 19.4 °F 69% 30.28 in 10.0 mi WNW 17.3 mph - N/A   Overcast
12:15 PM 28.4 °F 16.2 °F 19.4 °F 69% 30.28 in 10.0 mi NW 17.3 mph - N/A   Overcast
12:35 PM 30.2 °F 17.8 °F 19.4 °F 64% 30.27 in 10.0 mi WNW 19.6 mph - N/A   Overcast
12:55 PM 32.0 °F 20.5 °F 21.2 °F 64% 30.26 in 10.0 mi NW 18.4 mph 23.0 mph N/A   Overcast
1:15 PM 32.0 °F 20.5 °F 21.2 °F 64% 30.26 in 10.0 mi WNW 18.4 mph 23.0 mph N/A   Overcast
1:35 PM 32.0 °F 20.5 °F 21.2 °F 64% 30.25 in 10.0 mi WNW 18.4 mph 24.2 mph N/A   Overcast
1:55 PM 32.0 °F 19.2 °F 19.4 °F 60% 30.24 in 10.0 mi West 23.0 mph 28.8 mph N/A   Overcast
2:15 PM 32.0 °F 20.1 °F 23.0 °F 69% 30.23 in 4.0 mi West 19.6 mph 31.1 mph 0.01 in Snow Light Snow
2:35 PM 28.4 °F 15.8 °F 24.8 °F 86% 30.24 in 1.0 mi WNW 18.4 mph 31.1 mph 0.12 in Snow Light Snow
2:55 PM 30.2 °F 18.1 °F 23.0 °F 75% 30.23 in 10.0 mi WNW 18.4 mph 27.6 mph 0.13 in   Mostly Cloudy
3:15 PM 32.0 °F 19.8 °F 21.2 °F 64% 30.23 in 10.0 mi WNW 20.7 mph 25.3 mph N/A   Mostly Cloudy
3:35 PM 28.4 °F 17.0 °F 23.0 °F 80% 30.23 in 1.5 mi WNW 15.0 mph 28.8 mph 0.01 in Snow Light Snow
3:55 PM 32.0 °F 21.2 °F 19.4 °F 60% 30.22 in 9.0 mi WNW 16.1 mph 23.0 mph 0.01 in   Overcast
4:15 PM 32.0 °F 20.1 °F 15.8 °F 51% 30.23 in 10.0 mi WNW 19.6 mph 29.9 mph N/A   Mostly Cloudy
4:35 PM 32.0 °F 20.1 °F 15.8 °F 51% 30.22 in 10.0 mi WNW 19.6 mph 27.6 mph N/A   Overcast
4:55 PM 32.0 °F 20.8 °F 17.6 °F 55% 30.22 in 10.0 mi NW 17.3 mph 25.3 mph N/A   Overcast
5:15 PM 32.0 °F 21.2 °F 17.6 °F 55% 30.22 in 10.0 mi NW 16.1 mph 21.9 mph N/A   Overcast
5:35 PM 32.0 °F 20.8 °F 17.6 °F 55% 30.22 in 10.0 mi WNW 17.3 mph 23.0 mph N/A   Overcast
5:55 PM 30.2 °F 20.2 °F 17.6 °F 60% 30.22 in 10.0 mi WNW 12.7 mph 19.6 mph N/A   Overcast
6:15 PM 30.2 °F 20.2 °F 17.6 °F 60% 30.23 in 10.0 mi WNW 12.7 mph 18.4 mph N/A   Overcast
6:35 PM 30.2 °F 20.2 °F 19.4 °F 64% 30.23 in 10.0 mi WNW 12.7 mph - N/A   Overcast
6:55 PM 28.4 °F 18.5 °F 21.2 °F 74% 30.24 in 6.0 mi WNW 11.5 mph 23.0 mph N/A Snow Light Snow
7:15 PM 28.4 °F 18.0 °F 21.2 °F 74% 30.24 in 10.0 mi WNW 12.7 mph - N/A   Overcast
7:35 PM 28.4 °F 18.5 °F 21.2 °F 74% 30.24 in 10.0 mi NW 11.5 mph - N/A   Overcast
7:55 PM 28.4 °F 18.5 °F 23.0 °F 80% 30.25 in 10.0 mi NW 11.5 mph - N/A   Overcast
8:15 PM 26.6 °F 16.2 °F 21.2 °F 80% 30.25 in 10.0 mi WNW 11.5 mph - N/A   Overcast
8:35 PM 26.6 °F 16.8 °F 19.4 °F 74% 30.25 in 10.0 mi WNW 10.4 mph - N/A   Overcast
8:55 PM 26.6 °F 17.5 °F 19.4 °F 74% 30.25 in 10.0 mi WNW 9.2 mph - N/A   Mostly Cloudy
9:15 PM 26.6 °F 18.2 °F 19.4 °F 74% 30.25 in 10.0 mi WNW 8.1 mph - N/A   Overcast
9:35 PM 24.8 °F 17.9 °F 17.6 °F 74% 30.24 in 10.0 mi WNW 5.8 mph - N/A   Overcast
9:55 PM 24.8 °F 17.9 °F 19.4 °F 80% 30.24 in 10.0 mi NW 5.8 mph - N/A   Overcast
10:35 PM 23.0 °F 14.7 °F 17.6 °F 80% 30.25 in 10.0 mi West 6.9 mph - N/A   Mostly Cloudy
10:55 PM 19.4 °F 8.6 °F 15.8 °F 86% 30.25 in 10.0 mi West 9.2 mph - N/A   Partly Cloudy
11:15 PM 19.4 °F 9.5 °F 15.8 °F 86% 30.25 in 10.0 mi West 8.1 mph - N/A   Clear
11:35 PM 17.6 °F 7.3 °F 14.0 °F 86% 30.25 in 10.0 mi West 8.1 mph - N/A   Partly Cloudy
11:55 PM 17.6 °F 10.7 °F 14.0 °F 86% 30.24 in 10.0 mi WSW 4.6 mph - N/A   Clear